Location: Northcutt
(34.7304°N, 84.4305°W)
Time: 19:31:46
(UTC+00:00)

A-11 Canister half - Pass Details

Date: 05 October 2022
Orbit: 1525 x 1683 km, 47.3° (Epoch: 07 December)

Event Time Altitude Azimuth Distance (km) Brightness Sun altitude
Rises 02:56:54 0° 304° (NW) 4,725 12.3 -44.3°
Reaches altitude 10° 02:59:56 10° 303° (WNW) 3,757 11.6 -44.8°
Enters shadow 03:06:22 49° 290° (WNW) 1,977 9.6 -45.9°
Maximum altitude 03:09:26 74° 221° (SW) 1,655 - -46.4°
Drops below altitude 10° 03:19:16 10° 138° (SE) 3,873 - -48.0°
Sets 03:22:26 0° 136° (SE) 4,876 - -48.5°
